Tracking 28081 objects as of 26-Sep-2023
HD Live streaming from Space Station
objects crossing your sky now

STARLINK-2564

Track STARLINK-2564 now!
10-day predictions
STARLINK-2564 is classified as:


NORAD ID: 48284
Int'l Code: 2021-036J
Perigee: 553.3 km
Apogee: 555.1 km
Inclination: 53.1 °
Period: 95.6 minutes
Semi major axis: 6925 km
RCS: Unknown
Launch date: April 29, 2021
Source: United States (US)
Launch site: AIR FORCE EASTERN TEST RANGE (AFETR)
Your satellite tracking list
Your tracking list is empty




NASA's NSSDC Master Catalog

Two Line Element Set (TLE):
1 48284U 21036J   23268.84523447  .00034411  00000-0  23150-2 0  9992
2 48284  53.0546 143.2196 0001259 115.1998 244.9122 15.06444897133861
Source of the keplerian elements: AFSPC